SWA3328 KSDF-KDEN

Flight info

Callsign SWA3328
Flight time N/A
Altitude 34000
Route GTGON1 TERGE DCT SLVER DCT KK48G DCT PEABO DCT OATHE CLASH5
Aircraft B38M/M-VGDW/C

Departure

Time N/A
Airport Louisville Muhammad Ali International Airport (KSDF)

Arrival

Time 2026-05-03 20:15
Airport Denver International Airport (KDEN)
Time Latitude Longitude Altitude Speed Heading
2026-05-03 20:15 39.85514 -104.64356 5357 ft 15 kts 359°
2026-05-03 20:15 39.85633 -104.64355 5355 ft 20 kts 360°
2026-05-03 20:15 39.85784 -104.64364 5354 ft 21 kts 343°
2026-05-03 20:15 39.85921 -104.64459 5354 ft 23 kts 331°
2026-05-03 20:16 39.86057 -104.64560 5352 ft 19 kts 330°
2026-05-03 20:16 39.86168 -104.64640 5352 ft 19 kts 331°
2026-05-03 20:16 39.86292 -104.64732 5351 ft 21 kts 330°
2026-05-03 20:16 39.86410 -104.64818 5354 ft 18 kts 332°
2026-05-03 20:17 39.86487 -104.64924 5358 ft 16 kts 279°
2026-05-03 20:17 39.86492 -104.65092 5362 ft 21 kts 270°
2026-05-03 20:17 39.86493 -104.65278 5366 ft 20 kts 271°
2026-05-03 20:17 39.86495 -104.65450 5370 ft 18 kts 271°
2026-05-03 20:18 39.86496 -104.65625 5373 ft 21 kts 270°
2026-05-03 20:18 39.86498 -104.65831 5379 ft 25 kts 270°
2026-05-03 20:18 39.86499 -104.66022 5383 ft 19 kts 270°
2026-05-03 20:18 39.86500 -104.66164 5385 ft 14 kts 271°
2026-05-03 20:19 39.86497 -104.66297 5382 ft 13 kts 250°
2026-05-03 20:19 39.86402 -104.66342 5383 ft 18 kts 180°
2026-05-03 20:19 39.86256 -104.66343 5383 ft 24 kts 180°
2026-05-03 20:19 39.86133 -104.66357 5382 ft 12 kts 208°
2026-05-03 20:20 39.86111 -104.66468 5377 ft 15 kts 292°
2026-05-03 20:20 39.86174 -104.66534 5376 ft 13 kts 296°
2026-05-03 20:20 39.86184 -104.66669 5379 ft 14 kts 270°
2026-05-03 20:20 39.86184 -104.66761 5379 ft 4 kts 270°
2026-05-03 20:21 39.86191 -104.66783 5379 ft 3 kts 311°
2026-05-03 20:21 39.86216 -104.66796 5378 ft 5 kts 353°
2026-05-03 20:21 39.86240 -104.66797 5377 ft 3 kts 358°
2026-05-03 20:21 39.86249 -104.66798 5377 ft 0 kts 359°